| time (UTC) | temp C | wind direction | speed KPH | gust KPH | rain 1hr cm | rain 24hr cm | rain mn cm | humidity % | barometer mb |
| 20260507050006 | 12 | 263 | 3.2 | 0.0 | 0.00 | 0.00 | 0.03 | 87 | 1004.4 |
| 20260507044501 | 12 | 277 | 0.0 | 0.0 | 0.00 | 0.00 | 0.03 | 88 | 1004.8 |
| 20260507043058 | 13 | 267 | 4.8 | 0.0 | 0.00 | 0.00 | 0.03 | 88 | 1004.5 |
| 20260507041551 | 13 | 293 | 3.2 | 0.0 | 0.00 | 0.00 | 0.03 | 90 | 1004.4 |
| 20260507040051 | 13 | 281 | 0.0 | 0.0 | 0.00 | 0.00 | 0.00 | 91 | 1004.4 |
| 20260507034549 | 13 | 242 | 0.0 | 0.0 | 0.00 | 0.00 | 0.36 | 92 | 1004.3 |
| 20260507033046 | 14 | 271 | 0.0 | 0.0 | 0.00 | 0.00 | 0.36 | 92 | 1004.1 |
| 20260507031543 | 14 | 259 | 3.2 | 0.0 | 0.00 | 0.00 | 0.36 | 92 | 1003.9 |
| 20260507030046 | 14 | 217 | 0.0 | 0.0 | 0.00 | 0.00 | 0.36 | 92 | 1003.7 |
| 20260507024543 | 14 | 214 | 1.6 | 0.0 | 0.00 | 0.00 | 0.33 | 92 | 1003.2 |
| 20260507023041 | 14 | 263 | 0.0 | 0.0 | 0.00 | 0.00 | 0.33 | 92 | 1003.5 |
| 20260507021510 | 14 | 240 | 1.6 | 0.0 | 0.00 | 0.00 | 0.33 | 92 | 1003.4 |
| 20260507020011 | 14 | 244 | 1.6 | 0.0 | 0.00 | 0.00 | 0.33 | 92 | 1003.5 |
| 20260507014507 | 14 | 206 | 1.6 | 0.0 | 0.00 | 0.00 | 0.33 | 92 | 1003.3 |
| 20260507013006 | 14 | 207 | 3.2 | 0.0 | 0.00 | 0.00 | 0.33 | 92 | 1003.5 |
| 20260507011505 | 14 | 209 | 3.2 | 0.0 | 0.00 | 0.00 | 0.33 | 92 | 1003.5 |
| 20260507010005 | 14 | 209 | 3.2 | 0.0 | 0.00 | 0.00 | 0.33 | 92 | 1003.7 |
| 20260507004533 | 14 | 208 | 4.8 | 0.0 | 0.00 | 0.00 | 0.33 | 92 | 1003.7 |
| 20260507003032 | 14 | 204 | 3.2 | 0.0 | 0.00 | 0.00 | 0.33 | 92 | 1003.6 |
| 20260507001529 | 14 | 213 | 4.8 | 0.0 | 0.00 | 0.00 | 0.33 | 92 | 1003.5 |
| 20260507000029 | 14 | 191 | 3.2 | 0.0 | 0.00 | 0.00 | 0.33 | 92 | 1003.5 |
| 20260506234526 | 14 | 192 | 1.6 | 0.0 | 0.00 | 0.00 | 0.33 | 92 | 1003.2 |
| 20260506233025 | 15 | 199 | 0.0 | 0.0 | 0.00 | 0.00 | 0.33 | 91 | 1003.2 |
| 20260506231523 | 15 | 198 | 3.2 | 0.0 | 0.00 | 0.00 | 0.33 | 91 | 1003.1 |
| 20260506230020 | 15 | 203 | 3.2 | 0.0 | 0.00 | 0.00 | 0.23 | 90 | 1003.4 |
| 20260506224518 | 15 | 213 | 4.8 | 0.0 | 0.00 | 0.00 | 0.23 | 90 | 1003.4 |
| 20260506223017 | 15 | 180 | 3.2 | 0.0 | 0.00 | 0.00 | 0.20 | 90 | 1003.3 |
| 20260506221512 | 15 | 248 | 4.8 | 0.0 | 0.00 | 0.00 | 0.20 | 89 | 1003.5 |
| 20260506220012 | 15 | 202 | 3.2 | 0.0 | 0.00 | 0.00 | 0.18 | 89 | 1003.7 |
| 20260506214510 | 15 | 199 | 1.6 | 0.0 | 0.00 | 0.00 | 0.18 | 89 | 1003.8 |
| 20260506213014 | 15 | 190 | 3.2 | 0.0 | 0.00 | 0.00 | 0.18 | 88 | 1004.0 |
| 20260506211538 | 15 | 238 | 8.0 | 0.0 | 0.00 | 0.00 | 0.18 | 88 | 1004.2 |
| 20260506210035 | 15 | 216 | 8.0 | 0.0 | 0.00 | 0.00 | 0.18 | 87 | 1004.1 |
| 20260506204532 | 15 | 211 | 8.0 | 0.0 | 0.00 | 0.00 | 0.18 | 87 | 1004.3 |
| 20260506203032 | 15 | 196 | 6.4 | 0.0 | 0.00 | 0.00 | 0.15 | 86 | 1004.4 |
| 20260506201542 | 15 | 189 | 3.2 | 0.0 | 0.00 | 0.00 | 0.13 | 85 | 1004.4 |
| 20260506200031 | 16 | 190 | 8.0 | 0.0 | 0.00 | 0.00 | 0.13 | 83 | 1004.2 |
| 20260506194559 | 16 | 202 | 4.8 | 0.0 | 0.00 | 0.00 | 0.10 | 82 | 1004.3 |
| 20260506193057 | 17 | 212 | 4.8 | 0.0 | 0.00 | 0.00 | 0.08 | 79 | 1004.3 |
| 20260506191555 | 18 | 214 | 3.2 | 0.0 | 0.00 | 0.00 | 0.05 | 76 | 1004.3 |
| 20260506190054 | 18 | 262 | 6.4 | 0.0 | 0.00 | 0.00 | 0.03 | 72 | 1004.3 |
| 20260506184555 | 19 | 211 | 4.8 | 0.0 | 0.00 | 0.00 | 0.00 | 68 | 1004.5 |
| 20260506183053 | 20 | 182 | 6.4 | 0.0 | 0.00 | 0.00 | 0.00 | 64 | 1004.6 |
| 20260506181549 | 21 | 199 | 9.7 | 0.0 | 0.00 | 0.00 | 0.00 | 59 | 1004.5 |
| 20260506180048 | 22 | 267 | 11.3 | 0.0 | 0.00 | 0.00 | 0.00 | 54 | 1004.4 |
| 20260506174547 | 22 | 200 | 11.3 | 0.0 | 0.00 | 0.00 | 0.00 | 52 | 1004.6 |
| 20260506173104 | 22 | 219 | 11.3 | 0.0 | 0.00 | 0.00 | 0.00 | 52 | 1004.7 |
| 20260506171553 | 23 | 239 | 8.0 | 0.0 | 0.00 | 0.00 | 0.00 | 51 | 1004.8 |
| 20260506170040 | 23 | 212 | 9.7 | 0.0 | 0.00 | 0.00 | 0.00 | 53 | 1004.7 |
| 20260506164539 | 22 | 202 | 8.0 | 0.0 | 0.00 | 0.00 | 0.00 | 55 | 1005.0 |
| 20260506163052 | 21 | 200 | 6.4 | 0.0 | 0.00 | 0.00 | 0.00 | 56 | 1005.2 |
| 20260506161540 | 21 | 232 | 9.7 | 0.0 | 0.00 | 0.00 | 0.00 | 56 | 1005.3 |
| 20260506160034 | 21 | 210 | 8.0 | 0.0 | 0.00 | 0.00 | 0.00 | 56 | 1005.9 |
| 20260506154536 | 22 | 194 | 9.7 | 0.0 | 0.00 | 0.00 | 0.00 | 56 | 1006.1 |
| 20260506153028 | 22 | 217 | 4.8 | 0.0 | 0.00 | 0.00 | 0.00 | 55 | 1006.1 |
| 20260506151527 | 22 | 220 | 6.4 | 0.0 | 0.00 | 0.00 | 0.00 | 56 | 1006.4 |
| 20260506150056 | 22 | 205 | 3.2 | 0.0 | 0.00 | 0.00 | 0.00 | 56 | 1006.5 |
| 20260506144554 | 21 | 188 | 4.8 | 0.0 | 0.00 | 0.00 | 0.00 | 59 | 1006.6 |
| 20260506143046 | 21 | 209 | 4.8 | 0.0 | 0.00 | 0.00 | 0.00 | 61 | 1006.4 |
| 20260506141552 | 21 | 244 | 6.4 | 0.0 | 0.00 | 0.00 | 0.00 | 60 | 1006.3 |
| 20260506140051 | 20 | 240 | 6.4 | 0.0 | 0.00 | 0.00 | 0.00 | 62 | 1006.6 |
| 20260506134537 | 20 | 145 | 6.4 | 0.0 | 0.00 | 0.00 | 0.00 | 65 | 1006.6 |
| 20260506133004 | 19 | 207 | 3.2 | 0.0 | 0.00 | 0.00 | 0.00 | 66 | 1007.1 |
| 20260506131503 | 19 | 232 | 3.2 | 0.0 | 0.00 | 0.00 | 0.00 | 67 | 1007.1 |
| 20260506130106 | 19 | 179 | 3.2 | 0.0 | 0.00 | 0.00 | 0.00 | 67 | 1007.0 |
| 20260506124559 | 18 | 218 | 1.6 | 0.0 | 0.00 | 0.00 | 0.00 | 69 | 1007.1 |
| 20260506123053 | 18 | 214 | 4.8 | 0.0 | 0.00 | 0.00 | 0.00 | 71 | 1007.2 |
| 20260506121550 | 17 | 205 | 1.6 | 0.0 | 0.00 | 0.00 | 0.00 | 72 | 1007.5 |
| 20260506120106 | 16 | 153 | 1.6 | 0.0 | 0.00 | 0.00 | 0.00 | 74 | 1007.2 |
| 20260506114556 | 16 | 175 | 3.2 | 0.0 | 0.00 | 0.00 | 0.00 | 75 | 1007.4 |
| 20260506113046 | 16 | 182 | 6.4 | 0.0 | 0.00 | 0.00 | 0.00 | 75 | 1007.7 |
| 20260506111551 | 16 | 261 | 6.4 | 0.0 | 0.00 | 0.00 | 0.00 | 76 | 1007.9 |
| 20260506110043 | 15 | 188 | 6.4 | 0.0 | 0.00 | 0.00 | 0.00 | 77 | 1007.6 |
| 20260506104544 | 15 | 194 | 3.2 | 0.0 | 0.00 | 0.00 | 0.00 | 78 | 1007.6 |
| 20260506103039 | 15 | 202 | 4.8 | 0.0 | 0.00 | 0.00 | 0.00 | 78 | 1007.5 |
| 20260506101538 | 15 | 207 | 3.2 | 0.0 | 0.00 | 0.00 | 0.00 | 77 | 1007.5 |
| 20260506100008 | 15 | 201 | 4.8 | 0.0 | 0.00 | 0.00 | 0.00 | 77 | 1007.4 |
| 20260506094505 | 15 | 206 | 4.8 | 0.0 | 0.00 | 0.00 | 0.00 | 77 | 1007.4 |
| 20260506093003 | 15 | 201 | 4.8 | 0.0 | 0.00 | 0.00 | 0.00 | 76 | 1007.3 |
| 20260506091600 | 15 | 190 | 3.2 | 0.0 | 0.00 | 0.00 | 0.00 | 75 | 1007.5 |
| 20260506090117 | 15 | 224 | 6.4 | 0.0 | 0.00 | 0.00 | 0.00 | 75 | 1007.4 |
| 20260506084556 | 15 | 211 | 1.6 | 0.0 | 0.00 | 0.00 | 0.00 | 74 | 1007.5 |
| 20260506083052 | 15 | 205 | 4.8 | 0.0 | 0.00 | 0.00 | 0.00 | 73 | 1007.5 |
| 20260506081550 | 16 | 248 | 4.8 | 0.0 | 0.00 | 0.00 | 0.00 | 73 | 1007.5 |
| 20260506073042 | 16 | 202 | 6.4 | 0.0 | 0.00 | 0.00 | 0.00 | 70 | 1007.2 |
| 20260506071540 | 16 | 209 | 6.4 | 0.0 | 0.00 | 0.00 | 0.00 | 70 | 1007.1 |
| 20260506061532 | 17 | 189 | 6.4 | 0.0 | 0.00 | 0.00 | 0.00 | 66 | 1007.1 |